Wind_Speed
23 24 24 23 23 22 22 23 22 22 23 22 22 21 21 20 20 19 19 20 20 20 21 21 21 22 22 23 23 23 23 24 24 23 21 21 22 22 23 23 24 25 24 25
24 24 25 25 23 23 23 24 24 24 24 23 24 23 22 21 21 20 20 20 21 22 22 23 23 23 23 23 23 23 24 24 24 23 23 23 23 23 24 25 26 26 25 25
24 25 24 25 25 24 24 24 25 25 25 24 24 23 21 21 22 22 21 21 21 23 24 24 24 24 24 25 25 24 24 24 24 23 23 24 25 25 26 27 27 27 27 26
25 25 26 26 25 25 25 25 26 26 25 25 24 23 23 23 23 22 22 22 22 23 24 25 26 25 25 25 25 25 24 24 24 24 24 26 27 27 27 28 28 28 27 26
26 26 26 27 26 25 25 27 27 27 27 26 26 25 25 25 25 24 24 23 24 24 25 25 25 25 25 26 25 25 24 25 25 25 26 27 28 27 28 28 28 28 28 27
28 27 26 28 28 26 26 28 27 27 27 27 26 27 27 26 27 26 25 25 26 26 26 26 26 27 26 25 26 26 26 27 27 27 27 28 28 28 28 29 29 29 29 28
29 29 29 30 29 28 28 28 27 27 27 27 27 28 27 27 27 27 27 28 28 27 27 27 27 28 28 28 27 28 28 29 29 29 29 30 30 29 29 29 29 29 29 30
30 30 31 31 31 30 30 29 28 26 26 27 28 28 28 28 29 29 29 30 30 30 29 29 29 29 29 29 29 29 30 30 31 32 31 31 31 31 30 29 29 29 29 30
31 32 31 30 30 30 29 29 29 28 28 28 28 28 29 29 29 30 31 31 31 30 30 30 30 30 30 30 31 31 31 32 33 32 31 32 32 32 31 30 30 29 30 30
31 31 30 30 29 29 29 30 30 29 29 28 28 27 28 28 29 29 29 30 30 30 31 31 31 31 31 31 32 32 33 33 33 32 32 32 32 32 31 30 31 31 31 31
30 30 29 29 29 28 28 29 29 29 29 29 29 28 28 29 30 30 30 30 30 30 31 31 31 32 33 33 34 34 34 34 33 33 33 33 33 33 33 32 32 32 32 31
30 30 29 29 29 28 28 29 29 29 29 29 30 29 29 28 29 30 31 31 31 31 31 32 33 34 34 34 35 35 35 35 34 35 34 34 34 34 33 33 33 33 32 32
30 30 30 30 29 29 29 29 29 28 28 28 29 29 29 29 30 30 31 31 32 33 33 33 33 34 34 35 35 36 36 36 35 35 35 35 35 34 34 34 34 33 33 33
29 30 30 30 30 30 30 30 29 29 28 28 28 29 30 31 31 31 32 32 33 33 34 34 33 33 34 34 35 35 35 35 35 35 35 35 35 35 35 34 34 33 33 33
28 28 28 29 30 30 30 30 30 30 30 30 31 31 32 32 32 33 33 34 34 34 34 34 34 34 35 35 35 35 35 35 35 35 34 35 35 35 35 35 34 33 33 33
27 27 27 28 29 30 30 31 31 32 32 32 32 32 32 32 33 34 34 34 35 35 34 34 34 35 34 34 34 35 35 34 34 34 34 34 34 34 34 34 34 34 33 33
26 27 28 29 29 29 30 31 31 31 31 31 32 33 33 33 33 33 34 34 34 33 33 34 34 34 34 34 34 34 34 34 34 33 33 33 32 32 32 32 32 32 32 31
26 26 27 27 28 29 29 29 30 30 30 31 32 32 32 33 33 33 32 32 33 33 33 33 34 34 35 34 34 33 32 32 31 32 32 32 31 31 31 31 31 30 30 30
25 25 25 26 27 27 28 28 29 30 30 31 31 31 31 32 33 33 33 33 33 34 34 35 34 34 35 35 34 34 33 32 32 32 32 32 31 30 30 30 29 29 29 29
24 25 25 26 26 27 27 28 29 30 30 30 29 29 30 31 31 32 32 33 33 34 35 35 34 34 34 34 34 34 34 33 33 32 31 31 31 30 30 29 29 28 28 29
22 23 24 25 26 27 27 28 28 28 28 28 29 29 29 29 30 31 31 32 33 34 34 34 34 34 34 34 34 34 33 33 33 32 31 31 31 30 30 29 29 29 28 29
22 22 24 25 26 27 27 28 28 28 28 27 27 28 28 29 30 30 31 31 31 32 32 32 33 33 33 33 33 32 32 31 30 29 30 30 30 30 31 30 30 29 29 29
21 22 23 24 24 25 26 27 27 27 27 27 27 27 28 28 28 29 29 29 30 30 30 30 30 30 30 30 30 30 30 29 29 28 28 29 29 29 29 30 30 30 29 29
21 22 23 23 24 24 25 26 26 25 25 25 26 26 26 27 28 28 28 28 28 28 28 28 28 28 29 29 29 29 29 29 29 28 29 29 29 29 29 29 29 29 29 29
21 21 22 22 23 23 23 24 24 24 24 24 24 25 25 26 26 27 27 27 27 27 27 28 28 29 29 28 28 28 29 29 29 29 29 29 29 29 29 28 28 29 28 28
19 20 21 22 23 24 24 24 23 23 23 24 24 24 25 25 25 26 26 26 26 26 27 27 27 27 26 26 27 27 28 28 28 28 29 29 28 28 28 28 28 28 29 28
20 21 21 22 23 24 23 23 22 22 23 24 24 24 25 25 24 25 25 25 26 26 26 26 26 26 26 27 28 28 27 27 28 28 28 29 29 29 30 29 29 29 28 28
Wind_Direction
245 246 249 254 254 253 250 249 252 259 265 267 268 267 269 270 271 269 271 274 273 274 276 278 280 281 284 284 283 284 286 288 290 290 287 288 292 294 295 296 296 294 292 291
250 252 252 253 254 254 256 256 256 259 263 266 267 268 268 268 269 270 271 272 272 273 276 279 280 282 284 283 283 285 286 287 291 291 288 288 293 294 295 295 295 292 291 289
249 252 253 252 253 255 257 257 257 259 262 264 267 268 265 264 266 268 270 272 271 271 274 278 280 282 283 282 282 283 285 287 289 291 288 289 291 292 293 293 293 292 290 290
249 252 253 253 254 254 256 257 258 259 260 262 264 265 264 263 264 266 268 269 270 272 273 275 278 280 280 281 283 283 284 286 287 288 288 289 290 290 291 291 292 292 292 290
250 254 257 256 255 256 258 258 259 259 260 262 263 264 263 263 263 264 268 270 271 272 273 275 277 279 281 282 282 283 283 285 285 285 287 288 288 289 291 291 291 292 292 293
249 250 254 258 259 260 260 261 261 260 260 261 262 262 263 263 264 264 268 270 270 271 273 274 275 278 279 281 282 283 283 284 284 284 286 287 288 289 291 291 290 289 289 290
251 252 254 257 260 260 260 261 263 262 261 260 260 260 262 263 264 265 268 270 271 271 271 272 273 275 277 278 280 281 282 283 283 283 285 287 290 291 290 291 290 290 291 291
252 253 255 257 258 258 260 262 262 261 260 260 261 260 261 262 264 266 267 269 270 271 272 273 273 274 275 276 279 280 280 281 282 282 284 288 289 290 290 290 291 291 292 292
253 255 257 258 259 259 259 260 260 261 261 261 263 263 262 263 265 267 270 272 272 272 272 273 273 273 275 276 277 278 279 280 282 283 285 287 287 288 289 291 292 292 293 292
252 255 257 258 259 259 258 258 258 259 260 262 263 264 264 263 265 267 271 273 273 273 274 273 274 274 274 275 276 277 279 281 282 284 286 286 286 287 288 289 291 291 292 291
252 254 256 258 259 260 259 257 256 258 260 261 263 264 265 264 264 267 270 272 272 274 275 274 274 273 273 275 276 277 279 280 282 283 285 286 287 286 287 288 289 290 290 290
252 254 256 259 259 259 259 259 259 259 259 259 261 263 265 266 268 269 271 272 273 275 277 276 275 276 276 276 277 278 279 280 281 282 283 284 285 284 285 286 287 288 288 289
253 255 256 258 259 259 260 261 260 259 259 260 262 263 265 267 269 271 272 273 275 276 278 278 277 277 277 278 278 278 279 279 280 281 283 283 283 284 285 285 285 286 286 287
255 256 256 257 258 260 262 262 261 259 260 261 262 264 266 268 270 272 273 274 275 276 277 278 278 278 278 279 279 279 278 279 280 281 282 283 284 283 283 283 284 285 285 285
255 256 256 257 259 260 262 263 262 261 262 263 265 267 268 268 270 272 273 274 275 276 276 278 279 279 280 280 279 280 279 279 280 280 282 283 283 283 282 282 283 283 284 284
259 257 257 258 259 260 260 261 263 263 263 264 267 269 270 270 271 273 274 275 276 276 276 278 279 280 281 280 279 280 280 280 279 279 282 283 283 282 282 282 282 283 283 283
260 261 261 261 260 261 262 262 263 264 265 266 268 270 270 271 273 274 275 276 277 278 278 279 281 281 280 280 281 281 281 280 280 280 282 283 283 283 283 283 283 282 283 283
260 261 262 263 263 263 264 265 265 267 268 269 270 270 271 271 272 274 275 276 277 278 278 280 280 280 281 281 282 282 283 282 281 282 282 283 283 283 283 283 283 282 282 281
262 262 263 263 264 265 266 267 268 268 269 270 270 270 271 273 273 273 274 276 278 279 280 282 282 281 282 282 283 283 284 283 282 282 282 282 282 282 282 282 282 282 283 282
264 264 264 265 266 267 268 268 270 271 271 272 272 273 274 275 276 276 278 279 280 281 282 282 283 283 284 284 284 284 284 284 283 281 281 281 280 280 280 280 280 281 283 282
265 267 268 268 268 268 268 269 271 272 273 273 274 275 275 275 276 278 279 280 281 282 282 281 281 282 282 283 283 284 284 284 283 281 280 279 279 279 279 278 278 279 280 280
266 268 270 271 270 269 269 270 271 272 274 273 274 275 276 276 278 280 282 283 283 282 282 281 281 282 282 282 282 282 283 283 283 281 280 280 279 279 278 277 277 277 278 279
268 271 272 273 273 273 271 270 271 273 273 272 273 275 276 278 280 283 284 284 284 284 283 283 282 282 283 283 282 282 282 282 281 281 281 280 280 280 278 278 277 276 277 278
271 273 274 275 276 276 274 272 272 271 272 274 275 276 278 279 281 283 284 284 285 285 284 285 284 283 282 282 282 282 282 282 281 281 280 279 279 280 279 278 276 275 276 276
274 276 278 278 277 279 281 277 274 273 274 277 278 279 281 282 282 283 284 285 285 286 287 286 285 285 284 283 282 282 282 282 282 282 282 280 280 280 279 279 278 276 276 275
278 280 281 281 280 280 280 279 276 274 275 278 280 281 282 283 284 284 286 286 286 287 287 288 287 285 283 282 282 283 283 282 282 282 282 280 279 279 277 278 278 277 276 275
280 283 284 283 282 281 281 279 278 278 279 280 282 284 284 284 286 287 288 288 288 288 288 288 287 286 286 285 283 283 283 283 283 282 281 280 279 279 278 278 278 277 275 274
Height
5862 5863 5865 5866 5867 5867 5868 5870 5872 5873 5873 5873 5873 5872 5872 5873 5873 5872 5872 5871 5871 5870 5870 5869 5868 5867 5865 5864 5862 5860 5858 5856 5854 5852 5850 5848 5847 5846 5844 5842 5839 5837 5835 5832
5856 5857 5858 5859 5860 5861 5861 5863 5864 5866 5866 5866 5866 5866 5866 5867 5867 5867 5866 5866 5865 5865 5864 5863 5862 5861 5859 5858 5856 5854 5852 5850 5849 5847 5845 5843 5841 5839 5837 5835 5833 5830 5828 5826
5850 5851 5851 5852 5853 5854 5856 5856 5858 5859 5860 5859 5860 5860 5861 5861 5861 5861 5860 5860 5859 5859 5858 5857 5856 5854 5853 5851 5849 5847 5846 5844 5842 5841 5839 5837 5835 5833 5831 5828 5826 5824 5821 5818
5843 5844 5845 5848 5847 5848 5849 5850 5851 5851 5852 5853 5853 5853 5853 5854 5854 5854 5854 5853 5853 5852 5851 5850 5849 5848 5846 5844 5843 5841 5839 5837 5836 5834 5832 5830 5828 5826 5823 5821 5818 5816 5814 5811
5836 5837 5838 5839 5839 5841 5842 5842 5843 5844 5845 5845 5846 5846 5846 5846 5846 5847 5846 5846 5846 5845 5844 5843 5842 5840 5839 5837 5836 5834 5832 5831 5829 5827 5825 5823 5821 5818 5816 5813 5811 5808 5806 5804
5828 5830 5832 5832 5832 5833 5835 5834 5836 5836 5837 5838 5838 5839 5839 5839 5839 5839 5839 5839 5838 5837 5836 5835 5834 5833 5832 5830 5829 5827 5825 5824 5822 5820 5818 5815 5813 5810 5808 5805 5803 5800 5798 5796
5820 5822 5823 5823 5824 5826 5828 5828 5828 5828 5829 5830 5830 5831 5831 5831 5831 5831 5831 5831 5830 5830 5829 5828 5826 5825 5824 5822 5821 5820 5818 5816 5814 5812 5810 5807 5805 5802 5800 5797 5795 5793 5791 5789
5812 5814 5816 5815 5816 5818 5818 5818 5819 5820 5821 5821 5822 5822 5822 5823 5823 5823 5823 5822 5821 5821 5821 5820 5818 5817 5816 5815 5813 5812 5810 5808 5806 5804 5801 5799 5797 5794 5791 5789 5787 5785 5783 5781
5804 5806 5806 5806 5807 5808 5809 5810 5810 5811 5812 5813 5813 5813 5814 5814 5814 5814 5814 5813 5813 5812 5811 5811 5810 5809 5808 5806 5804 5803 5801 5799 5797 5795 5793 5790 5788 5785 5783 5780 5779 5777 5775 5773
5794 5795 5797 5798 5799 5799 5800 5801 5802 5802 5803 5804 5804 5805 5805 5805 5805 5805 5805 5804 5803 5803 5802 5801 5800 5799 5798 5797 5795 5793 5791 5790 5788 5786 5784 5781 5779 5777 5774 5772 5770 5768 5766 5764
5786 5787 5788 5789 5790 5791 5792 5792 5793 5794 5794 5795 5795 5796 5796 5796 5796 5796 5796 5795 5795 5794 5792 5791 5790 5789 5788 5786 5785 5783 5781 5780 5778 5776 5774 5772 5770 5767 5765 5764 5762 5760 5758 5756
5777 5779 5780 5781 5781 5782 5783 5783 5784 5785 5785 5785 5786 5786 5787 5787 5787 5787 5786 5786 5785 5784 5783 5782 5780 5779 5778 5776 5774 5773 5771 5769 5767 5766 5764 5762 5760 5758 5756 5754 5753 5751 5749 5747
5768 5769 5771 5772 5773 5773 5774 5774 5775 5775 5775 5776 5776 5777 5777 5777 5777 5777 5776 5776 5775 5774 5773 5771 5770 5769 5767 5765 5764 5762 5761 5759 5757 5756 5754 5752 5749 5747 5746 5745 5743 5741 5739 5737
5759 5761 5762 5763 5764 5765 5765 5766 5766 5766 5767 5767 5767 5768 5768 5768 5768 5767 5767 5766 5765 5764 5763 5761 5760 5758 5756 5755 5753 5752 5750 5749 5747 5745 5743 5741 5739 5737 5736 5734 5733 5731 5729 5727
5751 5752 5753 5754 5755 5756 5756 5757 5757 5757 5758 5758 5758 5758 5758 5758 5757 5757 5756 5755 5754 5753 5752 5751 5750 5748 5746 5744 5742 5741 5739 5738 5736 5734 5732 5730 5729 5727 5726 5724 5722 5721 5719 5717
5742 5743 5744 5745 5746 5746 5747 5747 5748 5748 5748 5748 5748 5748 5748 5748 5747 5746 5745 5745 5744 5743 5741 5740 5739 5737 5735 5734 5732 5731 5729 5727 5725 5724 5722 5720 5718 5717 5715 5714 5712 5710 5709 5707
5734 5735 5735 5736 5737 5737 5738 5738 5738 5738 5738 5738 5738 5738 5738 5737 5737 5736 5735 5734 5733 5732 5731 5730 5729 5727 5725 5723 5722 5720 5718 5717 5715 5713 5712 5710 5708 5706 5705 5703 5701 5700 5699 5697
5725 5726 5727 5727 5728 5728 5729 5729 5729 5729 5729 5729 5728 5728 5728 5727 5727 5726 5725 5724 5723 5721 5720 5719 5718 5716 5715 5713 5711 5710 5708 5706 5705 5703 5701 5700 5698 5696 5695 5693 5691 5690 5689 5687
5717 5718 5718 5719 5719 5719 5720 5720 5720 5720 5719 5719 5719 5718 5718 5717 5716 5715 5715 5713 5712 5711 5710 5708 5707 5706 5704 5702 5700 5699 5697 5696 5694 5692 5691 5689 5688 5686 5685 5683 5682 5681 5679 5678
5709 5710 5710 5710 5711 5711 5711 5711 5711 5710 5710 5709 5709 5709 5708 5707 5706 5705 5704 5703 5702 5701 5699 5698 5696 5695 5693 5691 5689 5688 5686 5685 5683 5681 5680 5679 5677 5676 5675 5674 5673 5671 5670 5668
5702 5702 5702 5702 5702 5702 5702 5702 5702 5701 5701 5700 5699 5699 5698 5698 5697 5695 5694 5693 5692 5690 5688 5687 5685 5684 5682 5680 5679 5677 5675 5674 5672 5671 5669 5668 5667 5666 5665 5664 5663 5662 5661 5659
5694 5694 5694 5694 5693 5693 5693 5692 5692 5692 5691 5690 5690 5689 5689 5688 5687 5686 5685 5683 5681 5679 5678 5676 5674 5673 5671 5669 5668 5666 5665 5663 5662 5660 5659 5658 5657 5655 5654 5653 5653 5652 5651 5649
5687 5686 5686 5686 5685 5684 5683 5683 5682 5682 5681 5681 5681 5680 5679 5678 5677 5676 5675 5673 5671 5669 5667 5666 5664 5662 5660 5659 5657 5656 5655 5653 5652 5650 5649 5648 5646 5645 5644 5643 5642 5641 5640 5639
5679 5679 5678 5677 5676 5675 5675 5674 5673 5673 5672 5672 5671 5671 5670 5669 5668 5667 5665 5664 5662 5660 5658 5656 5654 5652 5650 5649 5647 5646 5645 5643 5642 5641 5639 5638 5637 5635 5634 5632 5631 5630 5630 5629
5672 5671 5670 5669 5668 5667 5666 5665 5664 5664 5664 5663 5663 5662 5661 5660 5659 5657 5656 5654 5652 5650 5648 5647 5645 5642 5640 5639 5637 5636 5634 5633 5632 5630 5629 5628 5626 5625 5623 5622 5621 5620 5619 5618
5665 5664 5663 5662 5660 5659 5658 5657 5656 5656 5655 5655 5654 5653 5652 5651 5649 5648 5646 5645 5643 5641 5639 5637 5635 5633 5631 5629 5627 5626 5624 5623 5621 5620 5618 5617 5615 5614 5613 5612 5610 5609 5608 5607
5658 5657 5656 5654 5653 5651 5650 5649 5648 5648 5647 5646 5645 5644 5643 5642 5641 5639 5637 5636 5634 5632 5630 5628 5626 5624 5622 5620 5618 5616 5615 5613 5611 5609 5608 5606 5605 5603 5602 5601 5600 5599 5598 5597